This is the latest recevied weather packets stored in our database for station/object KK6LVQ-13. If no packets are shown the sender has not sent any weather packets the latest 10 day(s).
| Time | Temp. | Humidity | Pressure | Rain* | Wind** | Luminosity | Snow |
|---|---|---|---|---|---|---|---|
| 1777416128 | 20° C | 58% | 1023.1 hPa | 0 mm | - | 648 W/m² | - |
| 1777415823 | 20° C | 57% | 1023 hPa | 0 mm | - | 668 W/m² | - |
| 1777415519 | 20° C | 60% | 1023.2 hPa | 0 mm | - | 644 W/m² | - |
| 1777415215 | 19.44° C | 58% | 1023.4 hPa | 0 mm | - | 661 W/m² | - |
| 1777414910 | 18.89° C | 60% | 1023.2 hPa | 0 mm | - | 668 W/m² | - |
| 1777414609 | 20° C | 60% | 1023.3 hPa | 0 mm | - | 675 W/m² | - |
| 1777414304 | 19.44° C | 61% | 1023.3 hPa | 0 mm | - | 698 W/m² | - |
| 1777413999 | 19.44° C | 60% | 1023.4 hPa | 0 mm | - | 210 W/m² | - |
| 1777413694 | 18.33° C | 62% | 1023.5 hPa | 0 mm | - | 739 W/m² | - |
| 1777413391 | 17.78° C | 65% | 1023.6 hPa | 0 mm | - | 174 W/m² | - |
| 1777413087 | 17.78° C | 64% | 1023.5 hPa | 0 mm | - | 152 W/m² | - |
| 1777412786 | 18.89° C | 64% | 1023.6 hPa | 0 mm | - | 150 W/m² | - |
| 1777412481 | 19.44° C | 61% | 1023.8 hPa | 0 mm | - | 156 W/m² | - |
| 1777412178 | 20° C | 59% | 1023.8 hPa | 0 mm | - | 723 W/m² | - |
| 1777411875 | 19.44° C | 60% | 1023.9 hPa | 0 mm | - | 328 W/m² | - |
| 1777411573 | 19.44° C | 60% | 1024 hPa | 0 mm | - | 364 W/m² | - |
| 1777411268 | 19.44° C | 61% | 1023.8 hPa | 0 mm | - | 223 W/m² | - |
| 1777410963 | 20° C | 60% | 1024 hPa | 0 mm | - | 799 W/m² | - |
| 1777410663 | 20° C | 62% | 1024.2 hPa | 0 mm | - | 813 W/m² | - |
| 1777410357 | 19.44° C | 62% | 1024.1 hPa | 0 mm | - | 810 W/m² | - |
| 1777410052 | 18.89° C | 61% | 1024.1 hPa | 0 mm | - | 810 W/m² | - |
| 1777409751 | 18.33° C | 62% | 1024.2 hPa | 0 mm | - | 849 W/m² | - |
| 1777409448 | 17.78° C | 64% | 1024.5 hPa | 0 mm | - | 371 W/m² | - |
| 1777409144 | 18.33° C | 63% | 1024.2 hPa | 0 mm | - | 224 W/m² | - |
| 1777408840 | 17.78° C | 63% | 1024.3 hPa | 0 mm | - | 447 W/m² | - |
* Rain latest hour (hover to see other rain measurements)
** Current wind speed in m/s (hover to see current wind gust speed)